| time (UTC) | temp F | wind direction | speed MPH | gust MPH | rain 1hr in | rain 24hr in | rain mn in | humidity % | barometer mb |
| 20260504023217 | 81 | 45 | 3.0 | 6.0 | 0.00 | 0.00 | 0.00 | 36 | 1007.5 |
| 20260504022217 | 81 | 23 | 3.0 | 5.0 | 0.00 | 0.00 | 0.00 | 37 | 1007.5 |
| 20260504021217 | 82 | 23 | 3.0 | 6.0 | 0.00 | 0.00 | 0.00 | 37 | 1007.5 |
| 20260504020217 | 82 | 23 | 3.0 | 5.0 | 0.00 | 0.00 | 0.00 | 36 | 1007.5 |
| 20260504015217 | 83 | 45 | 5.0 | 8.0 | 0.00 | 0.00 | 0.00 | 36 | 1007.6 |
| 20260504014217 | 84 | 45 | 4.0 | 6.0 | 0.00 | 0.00 | 0.00 | 35 | 1007.6 |
| 20260504013217 | 85 | 23 | 4.0 | 7.0 | 0.00 | 0.00 | 0.00 | 34 | 1007.6 |
| 20260504012217 | 85 | 23 | 3.0 | 5.0 | 0.00 | 0.00 | 0.00 | 30 | 1007.6 |
| 20260504011217 | 85 | 23 | 5.0 | 8.0 | 0.00 | 0.00 | 0.00 | 29 | 1007.7 |
| 20260504010217 | 85 | 0 | 3.0 | 5.0 | 0.00 | 0.00 | 0.00 | 29 | 1007.8 |
| 20260504005237 | 85 | 23 | 4.0 | 6.0 | 0.00 | 0.00 | 0.00 | 29 | 1007.9 |
| 20260504004217 | 85 | 23 | 4.0 | 6.0 | 0.00 | 0.00 | 0.00 | 30 | 1008.1 |
| 20260504003217 | 85 | 0 | 4.0 | 6.0 | 0.00 | 0.00 | 0.00 | 29 | 1008.1 |
| 20260504002217 | 85 | 45 | 5.0 | 7.0 | 0.00 | 0.00 | 0.00 | 32 | 1008.3 |
| 20260504001237 | 85 | 0 | 4.0 | 5.0 | 0.00 | 0.00 | 0.00 | 31 | 1008.5 |
| 20260504000219 | 85 | 0 | 4.0 | 7.0 | 0.00 | 0.00 | 0.00 | 31 | 1008.6 |
| 20260503235217 | 85 | 23 | 3.0 | 5.0 | 0.00 | 0.00 | 0.00 | 30 | 1008.6 |
| 20260503234217 | 84 | 23 | 4.0 | 6.0 | 0.00 | 0.00 | 0.00 | 30 | 1008.7 |
| 20260503233217 | 84 | 45 | 5.0 | 7.0 | 0.00 | 0.00 | 0.00 | 32 | 1008.8 |
| 20260503232357 | 84 | 23 | 5.0 | 8.0 | 0.00 | 0.00 | 0.00 | 33 | 1009.0 |
| 20260503231217 | 83 | 23 | 6.0 | 9.0 | 0.00 | 0.00 | 0.00 | 32 | 1009.1 |
| 20260503230217 | 83 | 23 | 5.0 | 8.0 | 0.00 | 0.00 | 0.00 | 33 | 1009.2 |
| 20260503225248 | 83 | 68 | 5.0 | 5.0 | 0.00 | 0.00 | 0.00 | 33 | 1009.4 |
| 20260503225117 | 83 | 0.0 | 0.0 | 0.00 | 0.00 | 0.00 | 33 | 1009.4 | |
| 20260503224717 | 83 | 68 | 4.0 | 7.0 | 0.00 | 0.00 | 0.00 | 34 | 1009.4 |
| 20260503223717 | 84 | 0 | 5.0 | 8.0 | 0.00 | 0.00 | 0.00 | 34 | 1009.6 |
| 20260503222717 | 84 | 0 | 5.0 | 9.0 | 0.00 | 0.00 | 0.00 | 34 | 1009.8 |
| 20260503221717 | 83 | 23 | 4.0 | 6.0 | 0.00 | 0.00 | 0.00 | 36 | 1009.9 |
| 20260503220737 | 83 | 45 | 5.0 | 7.0 | 0.00 | 0.00 | 0.00 | 37 | 1010.0 |
| 20260503215737 | 83 | 45 | 6.0 | 9.0 | 0.00 | 0.00 | 0.00 | 38 | 1010.0 |
| 20260503214717 | 82 | 23 | 4.0 | 8.0 | 0.00 | 0.00 | 0.00 | 39 | 1010.2 |
| 20260503213757 | 82 | 0 | 4.0 | 9.0 | 0.00 | 0.00 | 0.00 | 38 | 1010.3 |
| 20260503212737 | 82 | 23 | 4.0 | 7.0 | 0.00 | 0.00 | 0.00 | 39 | 1010.3 |
| 20260503211717 | 82 | 45 | 5.0 | 7.0 | 0.00 | 0.00 | 0.00 | 39 | 1010.5 |
| 20260503210717 | 82 | 45 | 4.0 | 8.0 | 0.00 | 0.00 | 0.00 | 40 | 1010.6 |
| 20260503205717 | 82 | 23 | 3.0 | 9.0 | 0.00 | 0.00 | 0.00 | 40 | 1010.7 |
| 20260503204717 | 81 | 45 | 6.0 | 11.0 | 0.00 | 0.00 | 0.00 | 41 | 1010.7 |
| 20260503203717 | 80 | 23 | 4.0 | 6.0 | 0.00 | 0.00 | 0.00 | 41 | 1010.8 |
| 20260503202757 | 81 | 0 | 5.0 | 8.0 | 0.00 | 0.00 | 0.00 | 40 | 1011.0 |
| 20260503201717 | 81 | 0 | 5.0 | 9.0 | 0.00 | 0.00 | 0.00 | 42 | 1011.1 |
| 20260503200737 | 81 | 23 | 5.0 | 7.0 | 0.00 | 0.00 | 0.00 | 42 | 1011.2 |
| 20260503195717 | 81 | 23 | 4.0 | 7.0 | 0.00 | 0.00 | 0.00 | 44 | 1011.4 |
| 20260503194717 | 80 | 68 | 3.0 | 7.0 | 0.00 | 0.00 | 0.00 | 44 | 1011.6 |
| 20260503193717 | 80 | 45 | 4.0 | 7.0 | 0.00 | 0.00 | 0.00 | 44 | 1011.7 |
| 20260503192717 | 79 | 23 | 4.0 | 6.0 | 0.00 | 0.00 | 0.00 | 45 | 1011.7 |
| 20260503191717 | 79 | 0 | 5.0 | 7.0 | 0.00 | 0.00 | 0.00 | 45 | 1012.0 |
| 20260503190737 | 78 | 0 | 4.0 | 8.0 | 0.00 | 0.00 | 0.00 | 46 | 1012.0 |
| 20260503185717 | 78 | 23 | 6.0 | 10.0 | 0.00 | 0.00 | 0.00 | 46 | 1012.1 |
| 20260503184717 | 77 | 45 | 6.0 | 10.0 | 0.00 | 0.00 | 0.00 | 46 | 1012.2 |
| 20260503183717 | 77 | 0 | 6.0 | 9.0 | 0.00 | 0.00 | 0.00 | 46 | 1012.3 |
| 20260503182717 | 77 | 23 | 6.0 | 10.0 | 0.00 | 0.00 | 0.00 | 46 | 1012.5 |
| 20260503181717 | 76 | 45 | 4.0 | 7.0 | 0.00 | 0.00 | 0.00 | 47 | 1012.4 |
| 20260503180717 | 76 | 45 | 5.0 | 10.0 | 0.00 | 0.00 | 0.00 | 48 | 1012.5 |
| 20260503175717 | 75 | 0 | 6.0 | 9.0 | 0.00 | 0.00 | 0.00 | 49 | 1012.6 |
| 20260503174717 | 75 | 0 | 4.0 | 7.0 | 0.00 | 0.00 | 0.00 | 51 | 1012.5 |
| 20260503173717 | 73 | 23 | 3.0 | 6.0 | 0.00 | 0.00 | 0.00 | 53 | 1012.5 |
| 20260503172717 | 73 | 45 | 4.0 | 8.0 | 0.00 | 0.00 | 0.00 | 52 | 1012.7 |
| 20260503171737 | 72 | 45 | 6.0 | 10.0 | 0.00 | 0.00 | 0.00 | 53 | 1012.7 |
| 20260503170737 | 72 | 23 | 6.0 | 10.0 | 0.00 | 0.00 | 0.00 | 53 | 1012.7 |
| 20260503150737 | 61 | 68 | 2.0 | 4.0 | 0.00 | 0.00 | 0.00 | 79 | 1013.2 |
| 20260503130717 | 52 | 45 | 3.0 | 3.0 | 0.00 | 0.00 | 0.00 | 90 | 1012.7 |
| 20260503110717 | 53 | 23 | 2.0 | 2.0 | 0.00 | 0.00 | 0.00 | 87 | 1013.1 |
| 20260503080716 | 59 | 0.0 | 1.0 | 0.00 | 0.00 | 0.00 | 74 | 1013.3 | |
| 20260503072737 | 60 | 0.0 | 0.0 | 0.00 | 0.00 | 0.00 | 73 | 1013.3 | |
| 20260503071737 | 61 | 0.0 | 0.0 | 0.00 | 0.00 | 0.00 | 71 | 1013.3 | |
| 20260503070717 | 61 | 0.0 | 1.0 | 0.00 | 0.00 | 0.00 | 69 | 1013.3 | |
| 20260503054715 | 64 | 45 | 1.0 | 4.0 | 0.00 | 0.00 | 0.00 | 64 | 1013.1 |
| 20260503052715 | 63 | 68 | 1.0 | 2.0 | 0.00 | 0.00 | 0.00 | 65 | 1013.2 |
| 20260503051736 | 64 | 68 | 1.0 | 3.0 | 0.00 | 0.00 | 0.00 | 66 | 1013.0 |
| 20260503050715 | 64 | 68 | 2.0 | 3.0 | 0.00 | 0.00 | 0.00 | 66 | 1012.9 |
| 20260503045715 | 64 | 90 | 2.0 | 3.0 | 0.00 | 0.00 | 0.00 | 65 | 1012.9 |
| 20260503044715 | 64 | 68 | 2.0 | 4.0 | 0.00 | 0.00 | 0.00 | 64 | 1012.7 |
| 20260503043715 | 65 | 68 | 2.0 | 6.0 | 0.00 | 0.00 | 0.00 | 62 | 1012.6 |
| 20260503042715 | 66 | 90 | 2.0 | 4.0 | 0.00 | 0.00 | 0.00 | 60 | 1012.5 |
| 20260503041735 | 67 | 68 | 5.0 | 8.0 | 0.00 | 0.00 | 0.00 | 58 | 1012.5 |
| 20260503040736 | 69 | 68 | 1.0 | 3.0 | 0.00 | 0.00 | 0.00 | 54 | 1012.3 |
| 20260503035716 | 69 | 45 | 2.0 | 3.0 | 0.00 | 0.00 | 0.00 | 52 | 1012.1 |
| 20260503034716 | 70 | 45 | 3.0 | 4.0 | 0.00 | 0.00 | 0.00 | 51 | 1012.0 |
| 20260503033715 | 70 | 45 | 4.0 | 6.0 | 0.00 | 0.00 | 0.00 | 50 | 1011.9 |
| 20260503032716 | 71 | 23 | 4.0 | 6.0 | 0.00 | 0.00 | 0.00 | 49 | 1011.8 |
| 20260503031716 | 72 | 23 | 4.0 | 7.0 | 0.00 | 0.00 | 0.00 | 48 | 1011.8 |
| 20260503030735 | 73 | 23 | 4.0 | 6.0 | 0.00 | 0.00 | 0.00 | 46 | 1011.6 |
| 20260503025715 | 73 | 45 | 4.0 | 5.0 | 0.00 | 0.00 | 0.00 | 45 | 1011.5 |
| 20260503024715 | 74 | 45 | 3.0 | 6.0 | 0.00 | 0.00 | 0.00 | 44 | 1011.5 |